Regional Weather Roundup
Issued by NWS Charleston, SC

Current Version | Previous Version | Graphics & Text | Print | Product List | Glossary On
Versions: 1 2 3 4 5 6 7 8 9 10 11 12 13 14 15 16 17 18 19 20 21 22 23 24 25 26 27 28 29 30 31 32 33 34 35 36 37 38 39 40 41 42 43 44 45 46 47 48 49 50
000
ASUS42 KCHS 291926
RWRCHS

REGIONAL WEATHER ROUNDUP
NATIONAL WEATHER SERVICE CHARLESTON SC
300 PM EDT SUN MAR 29 2015

NOTE: "FAIR" INDICATES FEW OR NO CLOUDS BELOW 12,000 FEET WITH NO
SIGNIFICANT WEATHER AND/OR OBSTRUCTIONS TO VISIBILITY.

NOT ALL STATIONS ARE QUALITY CONTROLLED BY THE NATIONAL
WEATHER SERVICE. USE DATA WITH CAUTION...ESPECIALLY
DEWPOINT OBSERVATIONS.

SCZ027-030-031-034>040-042>050-292000-
...SOUTHEAST SOUTH CAROLINA...

CITY           SKY/WX    TMP DP  RH WIND       PRES   REMARKS
N CHARLESTON   MOSUNNY   55  14  19 W6        30.40F
WATERFRONT PRK NOT AVBL
MOUNT PLEASANT FAIR      54  27  35 S10       30.39F
PINOPOLIS        N/A     52  14  22 VRB3      30.33F
MONCKS CORNER  FAIR      55  18  22 N7        30.39F
SUMMERVILLE    FAIR      55  19  24 N3        30.39F
BEAUFORT MCAS  SUNNY     56  24  29 SE3       30.38F
BEAUFORT ARPT  FAIR      55  28  35 NE7       30.37F
HILTON HEAD IS SUNNY     54  28  37 E6        30.40F
WALTERBORO     CLEAR     54  14  20 CALM      30.38F
ALLENDALE      FAIR      55  14  19 CALM      30.36F

...SOUTHERN MIDLANDS AND PEE DEE...

CITY           SKY/WX    TMP DP  RH WIND       PRES   REMARKS
GEORGETOWN     NOT AVBL
KINGSTREE      NOT AVBL
ORANGEBURG     SUNNY     53  13  20 VRB5      30.39F
BARNWELL       FAIR      55  16  21 W3        30.37F
AIKEN          FAIR      52   9  17 CALM      30.38F
MANNING        HVY RAIN  52  10  19 SW5       30.39F
COLUMBIA       SUNNY     54  13  19 W12       30.38F
SUMTER         SUNNY     53   8  16 N2        30.37F
FLORENCE       SUNNY     52  10  18 SW9       30.38F
MYRTLE BEACH   SUNNY     50  21  32 S12       30.41F
N MYRTLE BEACH SUNNY     51  15  23 VRB3      30.37F

$$

GAZ063-065-086>088-099>101-113>116-118-119-134>141-150-292000-
...SOUTHEAST GEORGIA...

CITY           SKY/WX    TMP DP  RH WIND       PRES   REMARKS
SAVANNAH ARPT  MOSUNNY   57  18  21 S7        30.38F
HUNTER AAF     SUNNY     58  23  25 N6        30.36F
FORT STEWART   SUNNY     59  21  23 NE3       30.35F
STATESBORO     SUNNY     58  21  24 E5        30.36F
SYLVANIA       CLEAR     57  22  26 CALM      30.37F
CLAXTON        FAIR      59  27  29 CALM      30.36F

...CSRA...CENTRAL AND FAR SOUTHEAST GEORGIA...

CITY           SKY/WX    TMP DP  RH WIND       PRES   REMARKS
THOMSON        SUNNY     58  22  24 CALM      30.38F
AUGUSTA-BUSH   SUNNY     56  12  17 N5        30.37F
AUGUSTA-DANIEL SUNNY     55  14  19 E8        30.37F
SWAINSBORO     FAIR     N/A N/A N/A SE3       30.35F
VIDALIA        SUNNY     59  27  29 CALM      30.35F
EASTMAN        FAIR      61  20  21 S3        30.37F
HAZLEHURST     FAIR      61  23  23 E3        30.34F
ALMA           SUNNY     60  24  25 VRB5      30.35F
WAYCROSS       SUNNY     64  30  27 SE8       30.34F
JESUP          FAIR      63  32  31 SE7       30.35F
BAXLEY         FAIR      61  18  18 CALM      30.34F
BRUNSWICK      SUNNY     59  32  36 NE8G18    30.38F
SAINT SIMONS   SUNNY     55  36  48 E13       30.39F

$$

SCZ027-028-034-036>038-045-046-048>050-GAZ119-141-292000-
...LAKE AND SUPPLEMENTAL COASTAL OBSERVATIONS...

STATION/POSITION TIME  TEMP    WIND        PRES    WAVE   SWELL
                       AIR SEA DIR/SP/G            HT/PER HT/PER/DIR
                 (UTC) (F)     (DEG/KT/KT) (MB)    (FT/S) (FT/S/D)
UPR LAKE MARION  NOT AVBL
WINYAH BAY       1800   45     110/  8     1028.0F
LAKE MURRAY      1900   50     140/  2/  5 1028.4F
ACE BASIN NERRS  1800   55      50/  2     1030.0S
FORT PULASKI     1806   48 60   70/ 12/ 15 1030.4F
SAPELO ISLAND    1900   55      60/ 10     1029.0F

$$

ANZ835-935-AMZ111-154-330-350-352-354-370-450-454-472-292000-
...C-MAN AND BUOY OBSERVATIONS...

STATION/POSITION TIME  TEMP    WIND        PRES    WAVE   SWELL
                       AIR SEA DIR/SP/G            HT/PER HT/PER/DIR
                 (UTC) (F)     (DEG/KT/KT) (MB)    (FT/S) (FT/S/D)
BUOY 41004       1850   46 68   10/ 12/ 16 1029.4F   4/ 6   3/ 6
BUOY 41008       1850   51 61   40/ 12/ 14 1029.1F   5/ 6   3/ 50/ 6
FOLLY BEACH CMAN 1900   48      90/  5/  6 1029.6F
CAPERS NEARSHORE NOT AVBL
FRIPP NEARSHORE  1800   48      60/ 10/ 14 1029.1F


STATION/POSITION TIME  TEMP    WIND        PRES    WAVE   SWELL
                       AIR SEA DIR/SP/G            HT/PER HT/PER/DIR
                 (UTC) (F)     (DEG/KT/KT) (MB)    (FT/S) (FT/S/D)
5E ST. MARYS GA  1821      60                N/A     4/ 6
FRYING PAN BUOY  1850   42 65   20/  8/ 12 1029.3F   4/ 6   3/ 60/ 6
BUOY 41025       NOT AVBL
CAPE LOOKOUT NC  1900   44     350/  5/  8 1027.8F
BUOY 41002       1850   54 68  330/ 19/ 23 1026.2F   8/ 8   3/ 20/10
BUOY 41010       1820   64 76  350/ 17/ 19 1026.2F
ST AUGUSTINE FL  1900   55 62   10/  8/  9 1029.2F


$$


USA.gov is the U.S. government's official web portal to all federal, state and local government web resources and services.